Hebron, NE

11:01 AM CDT on May 27, 2018 (GMT -0500)
Hebron Municipal

Weather History for KHJH - May, 2013

Change the Weather History Date:

Wednesday, May 15, 2013

  Actual Average Record
Temperature  
Mean Temperature 75 °F -  
Max Temperature 87 °F 74 °F 91 °F (2012)
Min Temperature 63 °F 49 °F 32 °F (1959)
Cooling Degree Days 10    
Growing Degree Days 25 (Base 50)    
Moisture  
Dew Point 55 °F    
Average Humidity 51    
Maximum Humidity 72    
Minimum Humidity 31    
Precipitation  
Precipitation 0.03 in - - ()
Sea Level Pressure  
Sea Level Pressure 29.82 in    
Wind  
Wind Speed 8 mph (SSE)    
Max Wind Speed 17 mph    
Max Gust Speed 24 mph    
Visibility 10 miles    
Events      
Averages and records for this station are not official NWS values.
T = Trace of Precipitation, MM = Missing Value Source: NWS Daily Summary

Daily Weather History Graph

Daily Weather History Graph

Search for Another Location

Airport or City:

Astronomy

May. 15, 2013 Rise Set
Actual Time 6:14 AM CDT 8:39 PM CDT
Civil Twilight 5:43 AM CDT 9:10 PM CDT
Nautical Twilight 5:05 AM CDT 9:48 PM CDT
Astronomical Twilight 4:23 AM CDT 10:31 PM CDT
Moon 10:51 AM CDT (5/15) 12:26 AM CDT (5/15)
Length of Visible Light 15h 26m
Length of Day
14h 25m
Waxing Crescent, 27% of the Moon is Illuminated
May 15
Waxing Crescent
May 17
First Quarter
May 24
Full
May 31
Last Quarter
Jun 8
New

Hourly Weather History & Observations

Time (CDT) Temp. Heat Index Dew Point Humidity Pressure Visibility Wind Dir Wind Speed Gust Speed Precip Events Conditions
12:15 AM 75.6 °F - 48.0 °F 38% 29.79 in 10.0 mi SSW 11.5 mph - N/A   Clear
12:35 AM 75.4 °F - 48.0 °F 38% 29.79 in 10.0 mi SSW 9.2 mph - N/A   Clear
12:55 AM 73.6 °F - 49.3 °F 42% 29.81 in 10.0 mi NW 6.9 mph - N/A   Clear
1:15 AM 71.8 °F - 50.0 °F 46% 29.82 in 10.0 mi West 4.6 mph - N/A   Clear
1:35 AM 71.4 °F - 50.2 °F 47% 29.82 in 10.0 mi West 3.5 mph - N/A   Clear
1:55 AM 66.6 °F - 51.6 °F 59% 29.81 in 10.0 mi SW 3.5 mph - N/A   Clear
2:15 AM 65.1 °F - 52.2 °F 63% 29.81 in 10.0 mi South 3.5 mph - N/A   Clear
2:35 AM 64.8 °F - 52.3 °F 64% 29.81 in 10.0 mi SSW 8.1 mph - N/A   Clear
2:55 AM 67.3 °F - 52.2 °F 58% 29.81 in 10.0 mi South 3.5 mph - N/A   Clear
3:15 AM 66.6 °F - 52.2 °F 60% 29.80 in 10.0 mi South 9.2 mph - N/A   Clear
3:35 AM 66.2 °F - 52.7 °F 62% 29.80 in 10.0 mi South 8.1 mph - N/A   Clear
3:55 AM 66.4 °F - 52.5 °F 61% 29.80 in 10.0 mi South 8.1 mph - N/A   Clear
4:15 AM 65.5 °F - 52.7 °F 63% 29.80 in 10.0 mi South 6.9 mph - N/A   Clear
4:35 AM 65.3 °F - 52.2 °F 62% 29.80 in 10.0 mi South 8.1 mph - N/A   Clear
4:55 AM 65.1 °F - 52.5 °F 64% 29.80 in 10.0 mi South 6.9 mph - N/A   Clear
5:15 AM 64.9 °F - 52.7 °F 64% 29.80 in 10.0 mi South 6.9 mph - N/A   Clear
5:35 AM 65.1 °F - 52.7 °F 64% 29.79 in 10.0 mi South 9.2 mph - N/A   Clear
5:55 AM 65.5 °F - 52.7 °F 63% 29.79 in 10.0 mi South 5.8 mph - N/A   Clear
6:15 AM 64.0 °F - 53.1 °F 67% 29.81 in 10.0 mi NNW 4.6 mph - N/A   Clear
6:35 AM 66.2 °F - 52.5 °F 61% 29.83 in 10.0 mi NNE 4.6 mph - N/A   Clear
6:55 AM 64.4 °F - 52.7 °F 66% 29.83 in 10.0 mi Calm Calm - N/A   Clear
7:15 AM 63.5 °F - 53.1 °F 69% 29.84 in 10.0 mi Calm Calm - N/A   Clear
7:35 AM 64.6 °F - 53.6 °F 68% 29.84 in 10.0 mi Calm Calm - N/A   Clear
7:55 AM 66.0 °F - 54.0 °F 65% 29.84 in 10.0 mi Calm Calm - N/A   Clear
8:15 AM - - - N/A% - - North - - N/A   Unknown
8:35 AM 68.9 °F - 54.7 °F 60% 29.84 in - East 4.6 mph - 0.03 in   Clear
8:55 AM 70.0 °F - 55.6 °F 60% 29.83 in 10.0 mi ESE 5.8 mph - 0.03 in   Clear
9:15 AM 72.0 °F - 55.0 °F 55% 29.83 in 10.0 mi ESE 6.9 mph - N/A   Clear
9:35 AM 72.5 °F - 55.4 °F 55% 29.87 in 10.0 mi Calm Calm - N/A   Clear
9:55 AM 72.7 °F - 54.9 °F 53% 29.87 in 10.0 mi Calm Calm - N/A   Clear
10:15 AM 74.3 °F - 55.0 °F 51% 29.87 in 10.0 mi Calm Calm - N/A   Clear
10:35 AM 75.0 °F - 55.8 °F 51% 29.87 in 10.0 mi ESE 5.8 mph - N/A   Clear
10:55 AM 76.6 °F - 55.6 °F 48% 29.87 in 10.0 mi East 5.8 mph - N/A   Clear
11:15 AM 77.2 °F - 54.7 °F 46% 29.87 in 10.0 mi East 6.9 mph - N/A   Clear
11:35 AM 77.4 °F - 54.5 °F 45% 29.87 in 10.0 mi East 8.1 mph - N/A   Clear
11:55 AM 79.2 °F - 54.5 °F 42% 29.87 in 10.0 mi East 11.5 mph - N/A   Clear
12:15 PM 80.6 °F 80.4 °F 54.9 °F 41% 29.85 in 10.0 mi East 15.0 mph 19.6 mph N/A   Clear
12:35 PM 81.3 °F 80.9 °F 54.5 °F 40% 29.85 in 10.0 mi East 13.8 mph 18.4 mph N/A   Clear
12:55 PM 82.2 °F 81.5 °F 55.2 °F 39% 29.84 in 10.0 mi East 17.3 mph 24.2 mph N/A   Clear
1:15 PM 82.4 °F 81.6 °F 54.7 °F 38% 29.85 in 10.0 mi ENE 16.1 mph 21.9 mph N/A   Clear
1:35 PM 83.1 °F 82.1 °F 54.7 °F 37% 29.84 in 10.0 mi East 10.4 mph 20.7 mph N/A   Clear
1:55 PM 83.1 °F 82.2 °F 55.2 °F 38% 29.84 in 10.0 mi East 13.8 mph 19.6 mph N/A   Clear
2:15 PM 83.5 °F 82.4 °F 54.9 °F 37% 29.83 in 10.0 mi East 17.3 mph 24.2 mph N/A   Clear
2:35 PM 84.4 °F 83.2 °F 55.4 °F 37% 29.83 in 10.0 mi East 15.0 mph - N/A   Clear
2:55 PM 86.2 °F - 51.8 °F 31% 29.82 in 10.0 mi SE 13.8 mph - N/A   Clear
3:15 PM 85.8 °F 84.2 °F 54.5 °F 34% 29.81 in 10.0 mi ESE 11.5 mph - N/A   Clear
3:35 PM 86.9 °F 84.8 °F 53.2 °F 31% 29.81 in 10.0 mi SE 12.7 mph 18.4 mph N/A   Clear
3:55 PM 86.7 °F 84.9 °F 54.1 °F 33% 29.81 in 10.0 mi SSE 15.0 mph - N/A   Clear
4:15 PM 87.1 °F 85.3 °F 54.5 °F 33% 29.80 in 10.0 mi SE 13.8 mph - N/A   Clear
4:35 PM 85.6 °F 84.3 °F 55.9 °F 36% 29.79 in 10.0 mi ESE 11.5 mph - N/A   Clear
4:55 PM 85.1 °F 84.1 °F 56.8 °F 38% 29.79 in 10.0 mi ESE 9.2 mph - N/A   Clear
5:15 PM 86.7 °F 85.1 °F 55.2 °F 34% 29.79 in 10.0 mi ESE 8.1 mph - N/A   Clear
5:35 PM 86.2 °F 84.9 °F 56.3 °F 36% 29.78 in 10.0 mi ESE 9.2 mph 16.1 mph N/A   Clear
5:55 PM 85.5 °F 84.1 °F 55.9 °F 36% 29.78 in 10.0 mi ESE 9.2 mph - N/A   Clear
6:15 PM 86.2 °F 84.9 °F 56.1 °F 36% 29.78 in 10.0 mi East 8.1 mph - N/A   Clear
6:35 PM 84.7 °F 83.6 °F 55.8 °F 37% 29.78 in 10.0 mi SE 4.6 mph - N/A   Scattered Clouds
6:55 PM 85.3 °F 84.1 °F 56.3 °F 37% 29.78 in 10.0 mi SSE 8.1 mph - N/A   Scattered Clouds
7:15 PM 85.3 °F 84.3 °F 57.2 °F 38% 29.78 in 10.0 mi SSE 9.2 mph - N/A   Clear
7:35 PM 83.5 °F 83.2 °F 58.6 °F 43% 29.78 in 10.0 mi South 5.8 mph - N/A   Clear
7:55 PM 82.0 °F 82.1 °F 59.0 °F 45% 29.78 in 10.0 mi South 8.1 mph - N/A   Clear
8:15 PM 79.3 °F - 58.5 °F 49% 29.78 in 10.0 mi South 8.1 mph - N/A   Clear
8:35 PM 77.2 °F - 57.2 °F 50% 29.79 in 10.0 mi South 6.9 mph - N/A   Clear
8:55 PM 75.0 °F - 57.2 °F 54% 29.79 in 10.0 mi South 5.8 mph - N/A   Clear
9:15 PM 74.3 °F - 57.0 °F 55% 29.79 in 10.0 mi South 9.2 mph - N/A   Clear
9:35 PM 75.2 °F - 59.9 °F 59% 29.79 in 10.0 mi South 9.2 mph - N/A   Clear
9:55 PM 73.6 °F - 60.8 °F 64% 29.81 in 10.0 mi South 5.8 mph - N/A   Clear
10:15 PM 72.1 °F - 61.0 °F 68% 29.83 in 10.0 mi South 11.5 mph - N/A   Clear
10:35 PM 71.8 °F - 61.7 °F 70% 29.83 in 10.0 mi South 8.1 mph - N/A   Clear
10:55 PM 71.2 °F - 61.7 °F 72% 29.83 in 10.0 mi SSW 11.5 mph - N/A   Clear
11:15 PM 71.1 °F - 61.3 °F 71% 29.83 in 10.0 mi SSW 11.5 mph - N/A   Clear
11:35 PM 70.7 °F - 60.8 °F 71% 29.83 in 10.0 mi SW 9.2 mph - N/A   Clear
11:55 PM 69.8 °F - 60.3 °F 72% 29.84 in 10.0 mi SSW 6.9 mph - N/A   Clear